SV1BYK-1 Weather Reports


Display with metric or nautical units.
time (UTC)temp
F
wind
direction
speed
MPH
gust
MPH
rain 1hr
in
rain 24hr
in
rain mn
in
humidity
%
barometer
mb
20260506114809 82 90 4.0 8.0 0.00 0.00 0.00 20 1007.1
20260506113909 82 180 4.0 8.0 0.00 0.00 0.00 20 1007.2
20260506113009 82 360 2.0 4.0 0.00 0.00 0.00 20 1007.4
20260506112109 80 180 4.0 7.0 0.00 0.00 0.00 24 1008.0
20260506110309 80 180 4.0 7.0 0.00 0.00 0.00 24 1008.0
20260506105409 80 180 4.0 7.0 0.00 0.00 0.00 24 1008.0
20260506104509 80 180 4.0 7.0 0.00 0.00 0.00 24 1008.0
20260506102709 80 180 4.0 7.0 0.00 0.00 0.00 24 1008.0
20260506100909 81 225 2.0 4.0 0.00 0.00 0.00 21 1008.3
20260506095109 83 135 5.0 7.0 0.00 0.00 0.00 23 1008.5
20260506094209 83 135 5.0 7.0 0.00 0.00 0.00 23 1008.4
20260506093309 80 135 4.0 8.0 0.00 0.00 0.00 23 1008.8
20260506092409 80 135 6.0 8.0 0.00 0.00 0.00 22 1008.9
20260506091509 79 135 4.0 7.0 0.00 0.00 0.00 24 1008.9
20260506090609 78 135 3.0 8.0 0.00 0.00 0.00 26 1009.3
20260506085709 78 180 4.0 7.0 0.00 0.00 0.00 26 1009.2
20260506083909 77 135 2.0 4.0 0.00 0.00 0.00 27 1009.0
20260506083009 77 135 2.0 4.0 0.00 0.00 0.00 27 1009.3
20260506082109 78 180 2.0 4.0 0.00 0.00 0.00 28 1009.5
20260506081209 78 180 2.0 4.0 0.00 0.00 0.00 28 1009.5
20260506080309 78 180 2.0 4.0 0.00 0.00 0.00 28 1009.5
20260506072709 76 360 1.0 2.0 0.00 0.00 0.00 33 1010.2
20260506071809 76 360 1.0 2.0 0.00 0.00 0.00 33 1010.2
20260506070909 76 360 1.0 2.0 0.00 0.00 0.00 33 1010.2
20260506062409 76 360 1.0 2.0 0.00 0.00 0.00 33 1010.2
20260506061509 76 360 1.0 2.0 0.00 0.00 0.00 33 1010.3
20260506051209 32 0 0.0 0.0 0.00 0.00 0.00 100
20260506044509 32 0 0.0 0.0 0.00 0.00 0.00 100
20260506043609 32 0 0.0 0.0 0.00 0.00 0.00 100
20260506042709 32 0 0.0 0.0 0.00 0.00 0.00 100
20260506041809 32 0 0.0 0.0 0.00 0.00 0.00 100
20260506040909 32 0 0.0 0.0 0.00 0.00 0.00 100
20260506035109 32 0 0.0 0.0 0.00 0.00 0.00 100
20260506034209 32 0 0.0 0.0 0.00 0.00 0.00 100
20260506033309 32 0 0.0 0.0 0.00 0.00 0.00 100
20260506032409 32 0 0.0 0.0 0.00 0.00 0.00 100
20260506031509 32 0 0.0 0.0 0.00 0.00 0.00 100
20260506030609 32 0 0.0 0.0 0.00 0.00 0.00 100
20260506025709 32 0 0.0 0.0 0.00 0.00 0.00 100
20260506024809 32 0 0.0 0.0 0.00 0.00 0.00 100
20260506023009 32 0 0.0 0.0 0.00 0.00 0.00 100
20260506022109 32 0 0.0 0.0 0.00 0.00 0.00 100
20260506021210 32 0 0.0 0.0 0.00 0.00 0.00 100
20260506020309 32 0 0.0 0.0 0.00 0.00 0.00 100
20260506015409 32 0 0.0 0.0 0.00 0.00 0.00 100
20260506014509 32 0 0.0 0.0 0.00 0.00 0.00 100
20260506013609 32 0 0.0 0.0 0.00 0.00 0.00 100